CZ-6A DEB, 56252

Orbit data source: Space-Track

CZ-6A DEB, 56252 is space debris in SSO originally from a launch on Fri, 11 Nov 2022 UTC launched from the Taiyaun Space Center, China (TSC). Debris objects in space refer to the collection of defunct objects orbiting the Earth. Examples of debris include non-operational satellites, rocket bodies, and fragments generated from explosions, collisions, or faulty payload assembly.

Loading next visibility...
Identifier
56252, 2022-151ABU
Orbit
SSO
Country
Flag of CNCN / PRC
Related business
Manufacturer
SAST
Mission
Spacecraft
Bus & Motor
Unknown
Mass
Unknown
Launch date (UTC)
2022-11-11 (4 years ago)
Launch vehicle
Unknown
Launch site
Taiyaun Space Center, China (TSC)
Object type
Payload
Rocket body
Debris
Shape & HBR
Unknown shape, 0.1 m
Radar Cross Section
Medium (>0.1 m² and <1 m²)

Expand to show TLE details & history
Last TLE update: 6 hours ago

TLE from 6 hours ago
0 CZ-6A DEB
1 56252U 22151ABU 26236.43539376  .00000244  00000-0  17339-3 0  9996
2 56252  98.8812 222.1150 0084895 161.3296 199.1018 14.04736382175856
Epoch: 2026-08-24T10:26Z
TLE epoch observation values (Epoch: 2026-08-24T10:26:58.020Z)
Latitude
-0.00004°
Longitude
92.65612°
Altitude
938.6 km
Speed
7.353 km/s
True Right ascension
14h 48m 27s
True Declination
0° 00' 00"
Sunlit
Object was in daylight at epoch
Visualization orbit readout
Latitude
Unknown
Longitude
Unknown
Altitude
Unknown
Speed
Unknown
Apparent Right ascension
Unknown
Apparent Declination
Unknown
Sunlit
N/A
Visualization observer readout
Local Sidereal Time
08:03:53
Azimuth
Unknown
Elevation
Unknown
Doppler factor
Unknown
Orbital elements
Apogee altitude
936.199 km
Perigee altitude
813.055 km
Semi-major axis
7,252.764 km
Eccentricity
0.00849
Inclination
98.8812°
RAAN
222.115°
Arg. of periapsis
161.3296°
True anomaly
198.78661°
Mean anomaly
199.1018°
Eccentric anomaly
198.94389°
Mean motion
3.51389 °/min
Orbital period
102.45 mins
BSTAR
0.00017339
Loading maneuver chart data...
Computing Atmospheric mass density...
Loading historical data...
Loading historical data...
Loading historical data...
Loading historical data...
Loading historical data...
Loading historical data...
Loading historical data...

Documentation

Showing up to 5 results
|